Погода в Новгородском

Россия / Брянская область     53°13′20″N   35°00′17″E
темп.,
°C
ветер,
м/с
пор.,
м/с
влажн.,
%
обл.,
%
осадки,
мм/ч
давл.,
гПа
погр.,
м
17 июня, чт
чт1700:00+14св37900 0.0 1019124
03:00+12св310890 0.0 1020203
06:00+14св39820 0.0 1021246
09:00+20всв47490 0.0 1022827
12:00+23всв45380 0.0 10221627
15:00+24всв45410 0.0 10221704
18:00+22в46550 0.0 10231304
21:00+16всв35840 0.0 102491
18 июня, пт
пт1800:00+14всв26950 0.0 1025103
03:00+12всв389493 0.0 1026150
06:00+14всв38840 0.0 1026229
09:00+20в46600 0.0 1026598
12:00+23в56470 0.0 10261344
15:00+24вюв45480 0.0 10261449
18:00+22вюв45603 0.0 10251264
21:00+17в25865 0.0 102683
19 июня, сб
сб1900:00+14вюв269554 0.0 1027109
03:00+13вюв24965 0.0 102779
06:00+14в268944 0.0 1027161
09:00+20вюв46605 0.0 1027725
12:00+23вюв45545 0.0 10261077
15:00+24вюв45554 0.0 10251258
18:00+23вюв45630 0.0 10241055
21:00+18вюв25890 0.0 102489
20 июня, вс
вс2000:00+15вюв24930 0.0 102579
03:00+14вюв24930 0.0 102572
06:00+15в25871 0.0 1025137
09:00+21вюв35650 0.0 1024552
12:00+24юв455315 0.0 1023931
15:00+25вюв445164 0.0 1022990
18:00+24вюв346064 0.0 1021829
21:00+19вюв2488100 0.0 102278
21 июня, пн
пн2100:00+17в3688100 0.0 1021111
03:00+17вюв2688100 0.0 1021136
06:00+18в3883100 0.0 1021204
09:00+22в4869100 0.0 1020438
12:00+24вюв4764100 0.0 1020639
15:00+27вюв565485 0.0 1019950
18:00+26в4866100 0.0 1019857
21:00+21в389285 0.0 1019161